Location: Chircca
(13.7944°S, 72.0608°W)
Time: 06:10:17
(UTC+00:00)

Timation 1 Rocket - Pass Details

Date: 14 July 2020
Orbit: 900 x 907 km, 70.0° (Epoch: 14 August)

Event Time Altitude Azimuth Distance (km) Brightness Sun altitude
Rises 23:58:15 0° 344° (NNW) 3,505 7.9 -19.7°
Reaches altitude 10° 00:00:43 10° 344° (NNW) 2,570 7.1 -20.3°
Maximum altitude 00:06:40 89° 66° (ENE) 910 4.3 -21.6°
Enters shadow 00:10:09 27° 162° (SSE) 1,676 5.4 -22.4°
